QPF
0.00 0.00 0.00 0.00 0.00 0.00 0.00 0.00 0.00 0.00 0.00 0.00 0.00 0.00 0.00 0.00 0.00 0.01 0.00 0.00 0.00 0.00 0.00 0.00 0.00 0.00 0.00 0.00 0.00 0.00 0.00 0.00 0.00 0.00 0.00 0.00 0.00 0.00 0.00 0.01 0.00 0.00 0.00 0.00 0.00 0.00 0.00 0.00 0.00
0.00 0.00 0.00 0.00 0.00 0.00 0.00 0.00 0.00 0.00 0.00 0.00 0.00 0.00 0.00 0.00 0.00 0.00 0.00 0.00 0.00 0.00 0.00 0.00 0.00 0.00 0.00 0.00 0.00 0.00 0.00 0.00 0.00 0.00 0.00 0.00 0.00 0.00 0.01 0.01 0.01 0.01 0.00 0.00 0.01 0.00 0.00 0.00 0.00
0.00 0.00 0.00 0.00 0.00 0.00 0.00 0.00 0.00 0.00 0.00 0.00 0.00 0.00 0.00 0.00 0.00 0.00 0.00 0.00 0.00 0.00 0.00 0.00 0.00 0.00 0.00 0.00 0.00 0.00 0.00 0.00 0.00 0.00 0.00 0.00 0.00 0.00 0.01 0.00 0.01 0.00 0.00 0.00 0.00 0.00 0.00 0.00 0.00
0.00 0.00 0.00 0.00 0.00 0.00 0.00 0.00 0.00 0.00 0.00 0.00 0.00 0.00 0.00 0.00 0.00 0.00 0.00 0.00 0.00 0.00 0.00 0.00 0.00 0.00 0.00 0.00 0.00 0.00 0.00 0.00 0.00 0.00 0.00 0.00 0.00 0.00 0.01 0.01 0.01 0.01 0.00 0.00 0.00 0.00 0.00 0.00 0.00
0.00 0.00 0.00 0.00 0.00 0.00 0.00 0.00 0.00 0.00 0.00 0.00 0.00 0.00 0.00 0.00 0.00 0.00 0.00 0.00 0.00 0.00 0.00 0.00 0.00 0.00 0.00 0.00 0.00 0.00 0.00 0.00 0.00 0.00 0.00 0.00 0.00 0.00 0.00 0.00 0.01 0.01 0.01 0.00 0.00 0.00 0.00 0.00 0.00
0.00 0.00 0.00 0.00 0.00 0.00 0.00 0.00 0.00 0.00 0.00 0.00 0.00 0.00 0.00 0.00 0.00 0.00 0.00 0.00 0.00 0.00 0.00 0.00 0.00 0.00 0.00 0.00 0.00 0.00 0.01 0.00 0.00 0.00 0.00 0.00 0.00 0.00 0.00 0.00 0.00 0.00 0.00 0.00 0.00 0.00 0.00 0.00 0.00
0.00 0.00 0.00 0.00 0.00 0.00 0.00 0.00 0.00 0.00 0.00 0.00 0.00 0.00 0.00 0.00 0.00 0.00 0.00 0.00 0.00 0.00 0.00 0.00 0.00 0.00 0.00 0.00 0.00 0.00 0.01 0.00 0.00 0.00 0.00 0.00 0.00 0.00 0.00 0.00 0.00 0.00 0.00 0.00 0.00 0.00 0.00 0.00 0.00
0.00 0.00 0.00 0.00 0.00 0.00 0.00 0.00 0.00 0.00 0.00 0.00 0.00 0.00 0.00 0.00 0.00 0.00 0.00 0.00 0.00 0.00 0.00 0.00 0.00 0.00 0.00 0.00 0.00 0.00 0.00 0.00 0.00 0.00 0.00 0.00 0.00 0.00 0.00 0.00 0.00 0.00 0.00 0.00 0.00 0.00 0.00 0.00 0.00
0.00 0.00 0.00 0.00 0.00 0.00 0.00 0.00 0.00 0.00 0.00 0.00 0.00 0.00 0.00 0.00 0.00 0.00 0.00 0.00 0.00 0.00 0.00 0.00 0.00 0.00 0.00 0.00 0.00 0.00 0.00 0.00 0.00 0.00 0.00 0.00 0.00 0.00 0.00 0.00 0.00 0.00 0.00 0.00 0.00 0.00 0.00 0.00 0.00
0.00 0.00 0.00 0.00 0.00 0.00 0.00 0.00 0.00 0.00 0.00 0.00 0.00 0.00 0.00 0.00 0.00 0.00 0.00 0.00 0.00 0.00 0.00 0.00 0.00 0.00 0.00 0.00 0.00 0.00 0.00 0.00 0.00 0.00 0.00 0.00 0.00 0.00 0.00 0.00 0.00 0.00 0.00 0.00 0.00 0.00 0.00 0.00 0.00
0.00 0.00 0.00 0.00 0.00 0.00 0.00 0.00 0.00 0.00 0.00 0.00 0.00 0.00 0.00 0.00 0.00 0.00 0.00 0.00 0.00 0.00 0.00 0.00 0.00 0.00 0.00 0.00 0.00 0.00 0.01 0.01 0.00 0.00 0.00 0.00 0.00 0.00 0.00 0.00 0.00 0.00 0.00 0.00 0.00 0.00 0.00 0.00 0.00
0.00 0.00 0.00 0.00 0.00 0.00 0.00 0.00 0.00 0.00 0.00 0.00 0.00 0.00 0.00 0.00 0.00 0.00 0.00 0.00 0.00 0.00 0.00 0.00 0.00 0.00 0.00 0.00 0.00 0.00 0.01 0.01 0.00 0.00 0.00 0.00 0.00 0.00 0.00 0.00 0.00 0.00 0.00 0.00 0.00 0.00 0.00 0.00 0.00
0.00 0.00 0.00 0.00 0.00 0.00 0.00 0.00 0.00 0.00 0.00 0.00 0.00 0.00 0.00 0.00 0.00 0.00 0.00 0.00 0.00 0.00 0.00 0.00 0.00 0.00 0.00 0.00 0.00 0.00 0.00 0.00 0.00 0.00 0.00 0.00 0.00 0.00 0.00 0.00 0.00 0.00 0.00 0.00 0.00 0.00 0.00 0.00 0.00
0.00 0.00 0.00 0.00 0.00 0.00 0.00 0.00 0.00 0.00 0.00 0.00 0.00 0.00 0.00 0.00 0.00 0.00 0.00 0.00 0.00 0.00 0.00 0.00 0.00 0.00 0.00 0.00 0.00 0.00 0.00 0.00 0.00 0.00 0.00 0.00 0.00 0.00 0.00 0.00 0.00 0.00 0.00 0.00 0.00 0.00 0.00 0.00 0.00
0.00 0.00 0.00 0.00 0.00 0.00 0.00 0.00 0.00 0.00 0.00 0.00 0.00 0.00 0.00 0.00 0.00 0.00 0.00 0.00 0.00 0.00 0.00 0.00 0.00 0.00 0.00 0.00 0.00 0.00 0.00 0.00 0.00 0.00 0.00 0.00 0.00 0.00 0.00 0.00 0.00 0.00 0.00 0.00 0.00 0.00 0.00 0.00 0.00
0.00 0.00 0.00 0.00 0.00 0.00 0.00 0.00 0.00 0.00 0.00 0.00 0.00 0.00 0.00 0.00 0.00 0.00 0.00 0.00 0.00 0.00 0.00 0.00 0.00 0.00 0.00 0.00 0.00 0.00 0.00 0.00 0.00 0.00 0.00 0.00 0.00 0.00 0.00 0.00 0.00 0.00 0.00 0.00 0.00 0.00 0.00 0.00 0.00
0.00 0.00 0.00 0.00 0.00 0.00 0.00 0.00 0.00 0.00 0.00 0.00 0.00 0.00 0.00 0.00 0.00 0.00 0.00 0.00 0.00 0.00 0.00 0.00 0.00 0.00 0.00 0.00 0.00 0.00 0.00 0.00 0.00 0.00 0.00 0.00 0.00 0.00 0.00 0.00 0.00 0.00 0.00 0.00 0.00 0.00 0.00 0.00 0.00
0.00 0.00 0.00 0.00 0.00 0.00 0.00 0.00 0.00 0.00 0.00 0.00 0.00 0.00 0.00 0.00 0.00 0.00 0.00 0.00 0.00 0.00 0.00 0.00 0.00 0.00 0.00 0.00 0.00 0.00 0.00 0.00 0.00 0.00 0.00 0.00 0.00 0.00 0.00 0.00 0.00 0.00 0.00 0.00 0.00 0.00 0.00 0.00 0.00
0.00 0.00 0.00 0.00 0.00 0.00 0.00 0.00 0.00 0.00 0.00 0.00 0.00 0.00 0.00 0.00 0.00 0.00 0.00 0.00 0.00 0.00 0.00 0.00 0.00 0.00 0.00 0.00 0.00 0.00 0.00 0.00 0.00 0.00 0.00 0.00 0.00 0.00 0.00 0.00 0.00 0.00 0.00 0.00 0.00 0.00 0.00 0.00 0.00
0.00 0.00 0.00 0.00 0.00 0.00 0.00 0.00 0.00 0.00 0.00 0.00 0.00 0.00 0.00 0.00 0.00 0.00 0.00 0.00 0.00 0.00 0.00 0.00 0.00 0.00 0.00 0.00 0.00 0.00 0.00 0.00 0.00 0.00 0.00 0.00 0.00 0.00 0.00 0.00 0.00 0.00 0.00 0.00 0.00 0.00 0.00 0.00 0.00
0.00 0.00 0.00 0.00 0.00 0.00 0.00 0.00 0.00 0.00 0.00 0.00 0.00 0.00 0.00 0.00 0.00 0.00 0.00 0.00 0.00 0.00 0.00 0.00 0.00 0.00 0.00 0.00 0.00 0.00 0.00 0.00 0.00 0.00 0.00 0.00 0.00 0.00 0.00 0.00 0.00 0.00 0.00 0.00 0.00 0.00 0.00 0.00 0.00
0.00 0.00 0.00 0.00 0.01 0.00 0.00 0.00 0.00 0.00 0.00 0.00 0.00 0.00 0.00 0.00 0.00 0.00 0.00 0.00 0.00 0.00 0.00 0.00 0.00 0.00 0.00 0.00 0.00 0.00 0.00 0.00 0.00 0.00 0.00 0.00 0.00 0.00 0.00 0.00 0.00 0.00 0.00 0.00 0.00 0.00 0.00 0.00 0.00
0.00 0.00 0.01 0.01 0.02 0.02 0.00 0.00 0.00 0.00 0.00 0.00 0.00 0.00 0.00 0.00 0.00 0.00 0.00 0.00 0.00 0.00 0.00 0.00 0.00 0.00 0.00 0.00 0.00 0.00 0.00 0.00 0.00 0.00 0.00 0.00 0.00 0.00 0.00 0.00 0.00 0.00 0.00 0.00 0.00 0.00 0.00 0.00 0.00
0.01 0.02 0.02 0.03 0.04 0.06 0.00 0.00 0.00 0.00 0.00 0.00 0.00 0.00 0.00 0.00 0.00 0.00 0.00 0.00 0.00 0.00 0.00 0.00 0.00 0.00 0.00 0.00 0.00 0.00 0.00 0.00 0.00 0.00 0.00 0.00 0.00 0.00 0.00 0.00 0.00 0.00 0.00 0.00 0.00 0.00 0.00 0.00 0.00
0.02 0.04 0.14 0.14 0.12 0.05 0.00 0.00 0.00 0.00 0.00 0.00 0.00 0.00 0.00 0.00 0.00 0.00 0.00 0.00 0.00 0.00 0.00 0.00 0.00 0.00 0.00 0.00 0.00 0.00 0.00 0.00 0.00 0.00 0.00 0.00 0.00 0.00 0.00 0.00 0.00 0.00 0.00 0.00 0.00 0.00 0.00 0.00 0.00
0.11 0.05 0.04 0.04 0.01 0.00 0.00 0.00 0.00 0.00 0.00 0.00 0.00 0.00 0.00 0.00 0.00 0.00 0.00 0.00 0.00 0.00 0.00 0.00 0.00 0.00 0.00 0.00 0.00 0.00 0.00 0.00 0.00 0.00 0.00 0.00 0.00 0.00 0.00 0.00 0.00 0.00 0.00 0.00 0.00 0.00 0.00 0.00 0.00
0.28 0.30 0.12 0.08 0.01 0.00 0.00 0.00 0.00 0.00 0.00 0.00 0.00 0.00 0.00 0.00 0.00 0.00 0.00 0.00 0.00 0.00 0.00 0.00 0.00 0.00 0.00 0.00 0.00 0.00 0.00 0.00 0.00 0.00 0.00 0.00 0.00 0.00 0.00 0.00 0.00 0.00 0.00 0.00 0.00 0.00 0.00 0.00 0.00
0.08 0.18 0.31 0.14 0.04 0.00 0.00 0.00 0.00 0.00 0.00 0.00 0.00 0.00 0.00 0.00 0.00 0.00 0.00 0.00 0.00 0.00 0.00 0.00 0.00 0.00 0.00 0.00 0.00 0.00 0.00 0.00 0.00 0.00 0.00 0.00 0.00 0.00 0.00 0.00 0.00 0.00 0.00 0.00 0.00 0.00 0.00 0.00 0.00
0.03 0.02 0.07 0.06 0.01 0.00 0.00 0.00 0.00 0.00 0.00 0.00 0.00 0.00 0.00 0.00 0.00 0.00 0.00 0.00 0.00 0.00 0.00 0.00 0.00 0.00 0.00 0.00 0.00 0.00 0.00 0.00 0.00 0.00 0.00 0.00 0.00 0.00 0.00 0.00 0.00 0.00 0.00 0.00 0.00 0.00 0.00 0.00 0.00
0.02 0.03 0.02 0.01 0.00 0.00 0.00 0.00 0.00 0.00 0.00 0.00 0.00 0.00 0.00 0.00 0.00 0.00 0.00 0.00 0.00 0.00 0.00 0.00 0.00 0.00 0.00 0.00 0.00 0.00 0.00 0.00 0.00 0.00 0.00 0.00 0.00 0.00 0.00 0.00 0.00 0.00 0.00 0.00 0.00 0.00 0.00 0.00 0.00
MSLP
1013.45 1012.34 1011.64 1011.67 1012.20 1011.76 1011.71 1012.27 1012.11 1012.43 1012.73 1013.18 1013.11 1013.47 1013.64 1013.97 1014.89 1016.38 1016.27 1016.42 1016.47 1017.23 1017.93 1018.34 1018.56 1018.87 1019.07 1019.43 1019.70 1019.94 1020.25 1020.44 1020.58 1020.69 1020.93 1021.04 1021.10 1021.16 1021.28 1021.39 1021.47 1021.52 1021.70 1021.83 1021.88 1022.06 1022.13 1022.29 1022.45
1013.68 1012.57 1011.53 1011.63 1012.09 1011.89 1012.36 1012.16 1012.59 1013.01 1013.49 1013.55 1013.61 1013.62 1013.65 1014.69 1015.32 1016.34 1016.50 1016.55 1016.56 1017.25 1017.77 1018.42 1018.78 1019.01 1019.22 1019.57 1019.83 1020.06 1020.37 1020.56 1020.74 1020.94 1021.14 1021.24 1021.32 1021.43 1021.61 1021.68 1021.76 1021.85 1022.00 1022.19 1022.34 1022.46 1022.57 1022.70 1022.78
1013.31 1012.52 1012.43 1011.89 1011.98 1011.91 1012.20 1012.36 1012.81 1013.49 1013.62 1013.74 1013.74 1014.03 1014.18 1015.11 1015.70 1016.33 1016.36 1016.45 1016.67 1017.13 1017.78 1018.61 1018.98 1019.21 1019.35 1019.59 1019.91 1020.12 1020.40 1020.64 1020.92 1021.10 1021.41 1021.52 1021.63 1021.66 1021.80 1021.93 1022.01 1022.14 1022.23 1022.57 1022.69 1022.75 1022.88 1023.06 1023.03
1013.17 1012.27 1012.39 1012.50 1012.30 1011.84 1012.07 1012.27 1012.75 1013.10 1013.62 1013.91 1014.03 1014.27 1014.80 1015.45 1015.69 1016.09 1016.55 1016.50 1016.87 1017.40 1018.13 1018.84 1019.07 1019.39 1019.51 1019.69 1019.96 1020.15 1020.45 1020.69 1021.03 1021.29 1021.51 1021.65 1021.84 1021.88 1022.02 1022.16 1022.29 1022.48 1022.57 1022.75 1022.85 1023.05 1023.24 1023.27 1023.18
1012.99 1012.90 1012.92 1012.63 1012.33 1011.89 1011.83 1012.15 1012.51 1012.97 1013.10 1013.54 1014.06 1014.41 1015.07 1015.74 1015.93 1016.38 1016.71 1016.74 1017.02 1017.64 1018.37 1018.94 1019.32 1019.50 1019.69 1019.80 1020.01 1020.23 1020.41 1020.71 1020.99 1021.34 1021.59 1021.78 1022.02 1022.09 1022.20 1022.34 1022.52 1022.60 1022.72 1022.84 1023.18 1023.34 1023.41 1023.40 1023.33
1013.81 1013.37 1013.51 1013.21 1012.52 1012.01 1011.96 1012.19 1012.65 1013.01 1012.95 1013.44 1013.95 1014.44 1015.42 1015.88 1016.29 1016.68 1016.80 1016.84 1016.82 1017.76 1018.29 1018.93 1019.54 1019.73 1019.81 1019.94 1020.13 1020.34 1020.55 1020.77 1021.05 1021.31 1021.61 1021.83 1022.00 1022.17 1022.29 1022.46 1022.60 1022.66 1022.76 1022.97 1023.25 1023.41 1023.48 1023.54 1023.50
1014.27 1014.23 1014.02 1013.67 1013.23 1012.75 1012.48 1012.62 1012.87 1013.20 1012.99 1013.10 1013.60 1014.34 1015.55 1016.19 1016.58 1017.00 1017.17 1016.97 1016.89 1017.47 1018.36 1018.77 1019.43 1019.82 1020.01 1020.05 1020.22 1020.46 1020.74 1020.93 1021.08 1021.32 1021.61 1021.83 1022.00 1022.11 1022.24 1022.52 1022.60 1022.69 1022.84 1023.18 1023.29 1023.38 1023.51 1023.56 1023.62
1015.05 1014.71 1014.54 1014.12 1013.59 1013.11 1013.26 1013.20 1013.29 1013.57 1013.52 1013.37 1013.56 1014.32 1015.41 1016.07 1016.93 1017.30 1017.35 1017.31 1017.35 1017.45 1018.10 1018.55 1019.05 1019.64 1020.08 1020.24 1020.29 1020.51 1020.70 1021.07 1021.25 1021.49 1021.78 1021.82 1021.97 1022.18 1022.34 1022.51 1022.67 1022.88 1023.07 1023.25 1023.35 1023.46 1023.49 1023.59 1023.72
1015.38 1015.33 1014.71 1014.34 1013.86 1013.45 1013.48 1013.77 1013.70 1013.74 1013.83 1013.71 1013.81 1014.46 1015.34 1016.23 1017.27 1017.57 1017.61 1017.65 1017.57 1017.78 1018.15 1018.23 1018.67 1019.15 1019.59 1020.01 1020.29 1020.58 1020.74 1020.97 1021.26 1021.55 1021.92 1022.10 1022.10 1022.19 1022.37 1022.51 1022.70 1022.92 1023.17 1023.31 1023.48 1023.53 1023.57 1023.74 1023.85
1015.74 1015.30 1014.77 1014.12 1014.10 1014.25 1014.27 1014.34 1014.41 1014.13 1013.83 1013.86 1014.09 1014.67 1015.49 1016.53 1017.40 1017.70 1017.79 1017.79 1017.68 1017.92 1018.23 1018.27 1018.38 1018.81 1019.00 1019.27 1020.02 1020.40 1020.79 1021.12 1021.30 1021.47 1021.83 1021.97 1022.03 1022.23 1022.29 1022.48 1022.74 1023.00 1023.22 1023.36 1023.50 1023.61 1023.76 1023.88 1023.83
1015.73 1015.58 1015.03 1014.37 1014.28 1014.66 1014.99 1014.90 1014.49 1014.74 1014.19 1013.98 1014.11 1014.54 1015.43 1016.36 1017.32 1017.65 1017.83 1017.85 1017.70 1017.55 1018.01 1018.21 1018.42 1018.53 1018.89 1019.10 1019.69 1020.04 1020.55 1020.86 1021.04 1021.36 1021.60 1021.63 1021.59 1022.03 1022.37 1022.68 1022.86 1023.14 1023.40 1023.58 1023.56 1023.65 1023.72 1023.59 1023.57
1016.09 1015.59 1015.23 1014.85 1014.76 1015.22 1015.50 1015.16 1015.00 1014.85 1014.65 1014.22 1014.23 1014.54 1015.18 1016.00 1016.78 1017.33 1017.64 1017.71 1017.87 1017.48 1017.56 1018.00 1018.17 1018.53 1018.63 1019.00 1019.36 1019.74 1020.04 1020.30 1020.59 1020.89 1021.17 1021.47 1021.61 1021.81 1022.07 1022.40 1022.64 1022.86 1023.05 1023.21 1023.30 1023.42 1023.30 1023.19 1023.04
1015.89 1015.86 1015.63 1015.08 1015.17 1015.50 1015.83 1015.69 1015.49 1014.82 1014.40 1014.36 1014.08 1014.52 1014.95 1015.45 1016.00 1016.63 1016.98 1017.33 1017.61 1017.57 1017.32 1017.67 1017.91 1018.24 1018.55 1018.74 1019.04 1019.29 1019.63 1019.95 1020.10 1020.41 1020.65 1020.95 1021.34 1021.74 1021.89 1022.01 1022.26 1022.54 1022.64 1022.77 1022.85 1022.83 1022.86 1023.00 1023.13
1015.87 1015.94 1015.79 1015.41 1015.45 1015.51 1015.74 1015.62 1015.45 1014.60 1014.10 1014.16 1014.14 1014.37 1014.67 1014.86 1015.20 1015.78 1016.18 1016.59 1017.01 1017.36 1017.26 1017.13 1017.58 1017.83 1018.11 1018.61 1018.73 1018.88 1019.03 1019.41 1019.69 1019.98 1020.21 1020.40 1020.80 1021.22 1021.48 1021.61 1021.68 1021.86 1022.02 1022.22 1022.38 1022.57 1022.73 1022.94 1022.99
1016.29 1016.54 1016.38 1015.89 1015.77 1015.71 1015.59 1015.34 1014.96 1014.45 1014.14 1014.03 1013.97 1014.00 1014.06 1014.11 1014.43 1014.73 1015.11 1015.52 1016.16 1016.84 1017.12 1016.98 1016.92 1017.27 1017.68 1018.06 1018.40 1018.63 1018.74 1018.77 1019.16 1019.39 1019.61 1020.00 1020.36 1020.66 1020.94 1021.27 1021.44 1021.49 1021.59 1021.82 1022.06 1022.17 1022.29 1022.56 1022.60
1016.91 1017.15 1016.74 1015.86 1015.45 1015.29 1015.85 1014.79 1014.73 1013.76 1013.75 1013.88 1013.74 1013.43 1013.26 1013.34 1013.54 1013.91 1014.30 1014.63 1015.18 1015.87 1016.37 1016.57 1016.57 1016.89 1017.29 1017.54 1017.68 1017.99 1018.33 1018.55 1018.70 1018.89 1019.15 1019.43 1019.77 1020.13 1020.45 1020.77 1021.02 1021.17 1021.34 1021.51 1021.79 1021.98 1022.29 1022.41 1022.39
1017.40 1016.86 1016.03 1015.45 1015.06 1015.23 1015.55 1014.96 1014.50 1013.75 1013.61 1013.80 1013.61 1013.14 1012.76 1012.70 1012.68 1012.97 1013.38 1014.01 1014.33 1014.70 1015.21 1015.55 1015.86 1016.28 1016.84 1017.20 1017.26 1017.14 1017.55 1018.00 1018.26 1018.52 1018.76 1018.94 1019.24 1019.59 1019.95 1020.11 1020.36 1020.56 1020.90 1021.12 1021.32 1021.65 1021.87 1022.09 1022.09
1017.36 1016.71 1016.15 1015.51 1015.50 1015.58 1015.58 1015.25 1014.98 1014.35 1013.88 1013.81 1013.60 1013.22 1012.79 1012.45 1012.24 1012.34 1012.48 1013.19 1013.78 1014.10 1014.43 1014.64 1015.03 1015.49 1016.09 1016.70 1017.01 1016.91 1016.90 1017.06 1017.39 1017.83 1018.13 1018.44 1018.70 1019.05 1019.48 1019.72 1019.83 1019.98 1020.40 1020.77 1020.94 1021.17 1021.35 1021.47 1021.65
1017.34 1016.52 1015.76 1015.18 1014.97 1015.71 1015.76 1015.46 1015.05 1014.37 1013.73 1013.52 1013.36 1013.00 1012.68 1012.35 1011.81 1011.86 1012.00 1012.44 1012.98 1013.49 1013.82 1013.93 1014.10 1014.41 1015.15 1015.67 1016.17 1016.44 1016.29 1016.40 1016.55 1016.85 1017.19 1017.60 1017.90 1018.28 1018.73 1019.18 1019.44 1019.60 1019.98 1020.27 1020.60 1020.83 1021.03 1021.18 1021.22
1017.25 1016.68 1015.89 1015.67 1015.65 1016.31 1016.51 1015.80 1015.22 1014.46 1013.69 1013.30 1012.99 1012.59 1012.16 1011.93 1011.77 1011.59 1011.65 1011.81 1012.16 1012.65 1013.09 1013.39 1013.39 1013.35 1013.80 1014.44 1014.56 1015.21 1015.60 1015.62 1015.63 1015.89 1016.34 1016.61 1016.96 1017.34 1017.79 1018.26 1018.68 1018.89 1019.29 1019.66 1019.98 1020.23 1020.62 1020.75 1020.89
1016.94 1016.61 1016.35 1016.51 1016.31 1016.57 1017.04 1015.81 1014.97 1013.82 1012.90 1012.31 1011.75 1011.65 1011.65 1011.54 1011.46 1011.34 1011.25 1011.39 1011.49 1011.95 1012.31 1012.85 1013.23 1013.20 1013.43 1013.84 1014.41 1014.84 1015.26 1015.38 1015.49 1015.35 1015.42 1015.48 1015.81 1016.17 1016.62 1017.12 1017.65 1018.08 1018.49 1018.84 1019.19 1019.52 1019.83 1020.20 1020.47
1016.75 1016.67 1017.00 1017.23 1017.47 1017.50 1017.33 1015.79 1014.32 1013.53 1012.45 1011.85 1011.11 1010.85 1011.15 1011.15 1010.97 1010.90 1010.90 1010.95 1011.38 1011.53 1011.65 1011.90 1012.23 1012.58 1012.79 1013.14 1013.49 1013.77 1013.94 1013.95 1013.88 1014.33 1014.39 1014.56 1014.84 1015.25 1015.67 1016.05 1016.44 1016.85 1017.25 1017.84 1018.21 1018.55 1018.81 1019.37 1019.70
1016.22 1016.85 1017.22 1017.63 1017.98 1018.33 1017.80 1017.53 1012.90 1012.76 1011.99 1011.88 1011.05 1010.85 1010.81 1010.73 1010.61 1010.77 1011.01 1010.98 1011.10 1011.25 1011.46 1011.81 1011.81 1011.97 1012.06 1012.32 1012.50 1012.77 1013.07 1013.20 1013.31 1013.60 1013.89 1014.02 1014.17 1014.37 1014.66 1015.07 1015.61 1016.09 1016.39 1016.64 1017.04 1017.47 1017.89 1018.22 1018.69
1017.30 1017.76 1017.84 1018.33 1018.80 1018.39 1015.73 1017.44 1012.85 1012.37 1011.43 1010.94 1010.50 1010.46 1010.76 1010.87 1011.02 1011.14 1011.40 1011.41 1011.38 1011.40 1011.58 1011.49 1011.58 1011.62 1011.47 1011.47 1011.65 1011.77 1011.95 1012.40 1012.82 1012.86 1013.07 1013.08 1013.11 1013.33 1013.63 1013.96 1014.45 1014.87 1015.37 1015.61 1015.86 1016.27 1016.79 1017.12 1017.46
1018.12 1018.28 1018.70 1018.73 1018.36 1017.15 1015.89 1016.41 1012.28 1010.92 1010.79 1010.78 1010.77 1010.84 1011.09 1011.20 1011.57 1011.83 1012.16 1012.13 1012.08 1011.94 1011.81 1011.73 1011.48 1011.26 1011.04 1010.98 1010.98 1011.00 1011.11 1011.49 1011.78 1011.91 1012.17 1012.39 1012.52 1012.53 1012.44 1012.94 1013.46 1013.86 1014.21 1014.52 1014.84 1015.19 1015.52 1015.79 1016.10
1018.20 1018.73 1018.10 1017.85 1017.58 1016.51 1015.78 1014.24 1011.99 1010.99 1010.56 1010.52 1010.75 1011.07 1011.39 1011.64 1012.03 1012.38 1012.55 1012.49 1012.25 1012.13 1011.85 1011.80 1011.56 1011.13 1010.89 1010.55 1010.40 1010.19 1010.28 1010.44 1010.70 1010.93 1011.11 1011.38 1011.57 1011.49 1011.57 1011.94 1012.35 1012.68 1013.16 1013.72 1014.11 1014.37 1014.48 1014.56 1014.76
1018.53 1018.36 1018.39 1018.02 1017.77 1016.55 1015.03 1013.16 1011.57 1010.96 1010.93 1011.02 1011.14 1011.53 1012.15 1012.21 1012.58 1012.77 1012.62 1012.62 1012.45 1012.25 1011.90 1011.69 1011.59 1011.25 1010.93 1010.48 1010.06 1009.76 1009.51 1009.55 1009.75 1009.93 1010.09 1010.26 1010.38 1010.53 1010.71 1010.96 1011.36 1011.80 1012.24 1012.60 1012.90 1013.24 1013.56 1013.74 1013.75
1017.86 1018.08 1018.84 1016.95 1016.85 1016.30 1014.47 1013.09 1011.88 1011.45 1011.69 1011.93 1012.07 1012.41 1012.75 1012.65 1012.55 1012.77 1012.83 1012.72 1012.63 1012.25 1011.89 1011.66 1011.41 1011.21 1010.87 1010.49 1009.95 1009.58 1009.17 1008.84 1008.79 1009.11 1009.25 1009.23 1009.35 1009.52 1009.71 1010.00 1010.35 1010.76 1011.21 1011.63 1011.97 1012.17 1012.28 1012.54 1012.76
1017.55 1017.20 1017.73 1016.81 1016.96 1015.98 1014.93 1013.17 1011.27 1011.30 1011.84 1012.32 1012.46 1013.03 1013.06 1012.93 1012.87 1012.95 1012.97 1012.88 1012.80 1012.53 1012.18 1011.78 1011.34 1010.97 1010.72 1010.56 1010.02 1009.58 1009.13 1008.66 1008.44 1008.37 1008.45 1008.52 1008.56 1008.66 1008.78 1009.04 1009.41 1009.85 1010.28 1010.65 1011.00 1011.18 1011.30 1011.35 1011.53
1016.29 1016.52 1016.30 1016.86 1016.65 1016.09 1015.31 1013.45 1011.65 1011.84 1012.17 1012.05 1012.68 1013.22 1013.38 1013.31 1013.24 1013.26 1013.33 1013.38 1013.31 1013.13 1012.50 1011.95 1011.41 1011.07 1010.60 1010.39 1010.20 1009.70 1009.09 1008.64 1008.34 1008.19 1008.17 1008.22 1008.20 1008.15 1008.25 1008.38 1008.52 1008.79 1009.16 1009.65 1010.04 1010.23 1010.34 1010.57 1010.83
Thickness
5758 5768 5774 5762 5727 5734 5720 5716 5740 5734 5734 5742 5745 5735 5731 5733 5718 5696 5727 5727 5724 5716 5709 5704 5701 5698 5696 5694 5691 5689 5687 5685 5685 5685 5684 5683 5683 5683 5682 5682 5683 5683 5682 5681 5681 5681 5681 5681 5681
5754 5764 5767 5750 5716 5707 5704 5733 5723 5729 5733 5741 5741 5740 5737 5720 5730 5720 5721 5726 5724 5717 5710 5705 5701 5699 5697 5695 5693 5691 5688 5686 5685 5684 5683 5683 5683 5681 5680 5680 5680 5680 5680 5678 5678 5678 5679 5679 5678
5755 5762 5737 5730 5721 5709 5707 5728 5729 5730 5737 5734 5734 5739 5735 5723 5729 5722 5728 5728 5724 5718 5712 5705 5700 5698 5697 5696 5694 5693 5690 5688 5686 5684 5682 5682 5681 5681 5680 5679 5679 5679 5678 5676 5676 5676 5676 5676 5676
5743 5748 5742 5713 5709 5729 5729 5731 5737 5731 5731 5734 5733 5725 5734 5734 5730 5731 5728 5726 5724 5717 5710 5705 5701 5698 5697 5695 5694 5693 5691 5689 5685 5683 5682 5680 5679 5679 5679 5678 5678 5676 5676 5675 5675 5674 5674 5674 5675
5741 5730 5707 5709 5716 5732 5739 5739 5740 5730 5733 5730 5730 5723 5723 5729 5732 5729 5725 5724 5721 5716 5708 5704 5700 5698 5696 5695 5694 5693 5692 5689 5687 5684 5681 5680 5678 5677 5677 5676 5676 5675 5675 5674 5672 5672 5672 5673 5674
5709 5721 5694 5693 5714 5731 5737 5734 5737 5728 5735 5730 5726 5722 5718 5728 5726 5724 5724 5722 5720 5713 5708 5703 5698 5696 5695 5694 5693 5692 5691 5689 5687 5685 5683 5680 5679 5677 5676 5675 5675 5675 5674 5673 5672 5672 5672 5671 5672
5701 5694 5692 5698 5706 5712 5723 5735 5728 5723 5728 5728 5735 5715 5718 5718 5722 5720 5718 5720 5717 5714 5706 5702 5698 5695 5694 5694 5692 5691 5689 5688 5687 5686 5684 5682 5680 5679 5677 5675 5675 5674 5674 5672 5671 5671 5671 5670 5670
5696 5694 5687 5695 5699 5703 5715 5725 5728 5721 5719 5737 5735 5712 5710 5717 5716 5715 5715 5715 5714 5712 5706 5702 5698 5695 5692 5691 5692 5690 5689 5686 5685 5684 5682 5682 5681 5680 5678 5675 5674 5673 5672 5671 5671 5670 5669 5669 5668
5700 5674 5673 5688 5694 5703 5716 5711 5722 5726 5717 5725 5728 5723 5721 5717 5709 5707 5707 5707 5709 5707 5705 5703 5699 5696 5694 5691 5690 5689 5688 5687 5685 5683 5681 5680 5679 5679 5678 5677 5675 5673 5671 5670 5669 5668 5667 5666 5665
5675 5668 5678 5700 5699 5693 5701 5707 5705 5711 5712 5713 5717 5720 5719 5711 5702 5699 5699 5700 5703 5702 5700 5700 5699 5696 5695 5694 5690 5688 5685 5684 5683 5683 5681 5679 5678 5676 5676 5675 5673 5671 5669 5668 5667 5666 5665 5663 5663
5676 5661 5683 5694 5693 5696 5691 5695 5709 5697 5698 5707 5710 5713 5713 5705 5697 5695 5695 5697 5699 5704 5700 5698 5696 5695 5693 5693 5690 5688 5685 5683 5682 5680 5680 5680 5680 5678 5675 5672 5670 5668 5666 5665 5664 5664 5663 5663 5663
5654 5673 5679 5683 5685 5686 5679 5692 5693 5695 5695 5711 5713 5711 5712 5702 5697 5694 5692 5694 5694 5700 5702 5698 5696 5693 5693 5690 5689 5687 5686 5685 5683 5680 5679 5678 5678 5677 5675 5672 5670 5667 5666 5665 5664 5663 5663 5662 5662
5654 5664 5668 5678 5678 5680 5677 5677 5680 5689 5702 5705 5712 5707 5706 5702 5701 5699 5697 5693 5694 5694 5700 5698 5695 5692 5690 5690 5688 5687 5685 5684 5683 5680 5679 5678 5677 5675 5673 5671 5669 5666 5664 5664 5663 5663 5662 5661 5659
5659 5659 5661 5666 5670 5672 5668 5672 5676 5692 5704 5700 5702 5700 5701 5704 5703 5700 5698 5695 5694 5693 5695 5699 5695 5692 5689 5686 5687 5687 5686 5683 5682 5681 5680 5678 5677 5674 5673 5672 5670 5668 5666 5664 5662 5661 5659 5657 5656
5647 5637 5644 5649 5658 5658 5667 5665 5669 5687 5692 5692 5695 5696 5700 5704 5705 5703 5702 5700 5697 5691 5692 5694 5696 5693 5689 5686 5684 5684 5684 5685 5682 5681 5680 5678 5675 5674 5673 5671 5670 5669 5667 5664 5661 5660 5658 5655 5654
5625 5620 5613 5648 5654 5658 5651 5651 5671 5686 5685 5685 5691 5695 5698 5702 5703 5706 5704 5703 5700 5694 5691 5692 5694 5691 5688 5686 5685 5683 5682 5682 5682 5680 5679 5677 5675 5673 5672 5670 5669 5667 5665 5663 5660 5658 5654 5652 5651
5604 5603 5622 5637 5647 5646 5639 5646 5668 5678 5679 5677 5680 5689 5696 5700 5703 5706 5705 5701 5700 5698 5695 5693 5692 5689 5685 5683 5684 5685 5682 5680 5679 5678 5677 5675 5672 5670 5669 5669 5668 5666 5663 5661 5658 5655 5652 5648 5646
5594 5605 5614 5620 5629 5631 5628 5639 5652 5661 5667 5668 5672 5679 5687 5693 5699 5703 5705 5701 5698 5696 5695 5694 5692 5689 5684 5680 5679 5681 5682 5680 5678 5677 5676 5673 5672 5669 5667 5667 5666 5664 5661 5658 5655 5652 5650 5648 5644
5600 5604 5610 5626 5632 5616 5618 5630 5639 5653 5659 5661 5666 5671 5678 5683 5694 5699 5699 5700 5696 5693 5692 5691 5692 5691 5686 5681 5677 5676 5678 5678 5680 5678 5676 5673 5672 5669 5666 5663 5661 5660 5659 5655 5652 5648 5646 5643 5640
5589 5592 5601 5613 5611 5606 5604 5615 5629 5643 5652 5655 5661 5667 5673 5679 5685 5691 5693 5694 5696 5692 5690 5690 5691 5693 5690 5685 5685 5681 5679 5680 5681 5680 5677 5673 5670 5669 5666 5664 5661 5658 5656 5653 5649 5645 5641 5639 5636
5581 5586 5595 5591 5602 5603 5590 5602 5620 5641 5652 5659 5667 5670 5672 5675 5678 5682 5685 5686 5690 5691 5689 5687 5686 5688 5687 5684 5679 5677 5674 5674 5675 5676 5676 5675 5673 5671 5668 5664 5659 5656 5654 5652 5649 5644 5640 5635 5631
5568 5590 5584 5582 5574 5565 5588 5578 5618 5630 5644 5652 5660 5663 5664 5667 5671 5677 5679 5682 5682 5686 5690 5688 5688 5686 5686 5682 5680 5678 5675 5675 5677 5674 5676 5677 5673 5671 5669 5666 5662 5659 5655 5652 5649 5645 5642 5636 5631
5580 5579 5574 5575 5565 5560 5570 5553 5622 5635 5634 5636 5646 5652 5653 5659 5663 5669 5672 5674 5677 5677 5682 5682 5683 5683 5685 5682 5682 5680 5677 5677 5675 5674 5673 5672 5673 5670 5668 5666 5662 5660 5656 5654 5651 5646 5641 5638 5633
5570 5560 5562 5557 5550 5541 5589 5555 5605 5620 5631 5636 5645 5650 5648 5644 5650 5655 5658 5666 5666 5667 5668 5673 5676 5678 5681 5682 5681 5681 5680 5676 5672 5672 5672 5673 5673 5672 5670 5666 5662 5658 5655 5654 5651 5646 5642 5638 5633
5548 5548 5539 5541 5541 5553 5579 5558 5607 5628 5630 5632 5634 5635 5631 5634 5636 5638 5639 5644 5649 5653 5656 5660 5665 5670 5675 5678 5679 5680 5679 5677 5674 5674 5671 5670 5670 5671 5673 5667 5662 5660 5656 5653 5650 5646 5641 5639 5635
5542 5541 5546 5544 5546 5562 5563 5563 5599 5621 5627 5626 5625 5621 5618 5621 5623 5622 5625 5628 5634 5640 5645 5649 5653 5660 5665 5671 5673 5677 5678 5677 5676 5675 5673 5670 5669 5671 5672 5668 5663 5660 5655 5650 5646 5643 5642 5641 5638
5531 5535 5544 5532 5518 5539 5559 5587 5608 5606 5607 5606 5610 5608 5599 5605 5607 5608 5612 5615 5621 5628 5635 5639 5643 5648 5653 5660 5665 5669 5674 5674 5673 5673 5673 5672 5672 5671 5669 5667 5663 5659 5654 5651 5648 5644 5641 5639 5637
5531 5535 5525 5528 5533 5533 5560 5572 5575 5587 5586 5588 5588 5587 5589 5595 5600 5599 5602 5606 5611 5617 5622 5628 5633 5636 5641 5647 5654 5659 5665 5669 5671 5668 5667 5669 5669 5668 5667 5664 5662 5657 5653 5648 5644 5642 5642 5639 5637
5527 5531 5527 5532 5532 5535 5540 5561 5596 5587 5580 5576 5580 5581 5581 5582 5586 5590 5593 5598 5600 5603 5609 5613 5619 5625 5630 5634 5641 5647 5652 5657 5660 5662 5662 5662 5662 5662 5661 5660 5657 5653 5648 5644 5640 5638 5636 5635 5633
5527 5530 5535 5522 5527 5526 5531 5546 5590 5582 5576 5577 5574 5571 5574 5575 5578 5583 5584 5583 5586 5590 5596 5601 5607 5611 5618 5623 5627 5633 5639 5644 5648 5650 5651 5650 5652 5653 5652 5652 5651 5649 5646 5641 5637 5634 5632 5629 5626